#timestamp,LO_Frequency,Hit,StdDev 
1504191615.0,286046999.8,P,0.3
1504191615.9,286046999.8,N,0.3
1504191635.8,286047002.7,P,1.2
1504191655.6,286047002.4,N,1.3
1504191675.5,286047002.5,N,1.3
1504191695.3,286047000.1,N,1.3
1504191715.1,286047001.9,N,1.2
1504191735.9,286047000.2,N,1.2
1504191755.7,286047002.0,N,1.2
1504191775.5,286047002.1,N,1.1
1504191795.4,286047002.4,N,1.1
1504191815.2,286047000.1,N,1.1
1504191835.1,286047002.8,N,1.2
1504191836.0,286047002.8,N,1.2
1504191855.8,286047002.3,N,1.2
1504191875.6,286047002.5,N,1.1
1504191895.5,286047000.3,N,1.2
1504191915.3,286047002.2,N,1.1
1504191935.2,286047001.8,N,1.1
1504191955.9,286046999.7,N,1.1
1504191975.7,286047002.5,N,1.1
1504191995.6,286047001.8,N,1.1
1504192015.4,286047001.7,N,1.1
1504192035.3,286047004.4,Y,0.0
1504192055.1,286047000.5,P,0.5
1504192056.0,286047000.5,N,0.5
1504192075.8,286047000.6,N,0.4
1504192095.7,286047000.6,N,0.4
1504192115.5,286047000.9,N,0.4
1504192135.3,286047001.0,N,0.3
1504192155.2,286047000.2,N,0.4
1504192175.0,286047002.7,Y,0.0
1504192175.9,286047002.7,P,1.0
1504192195.8,286047000.5,N,1.0
1504192215.6,286047000.6,N,0.9
1504192235.4,286047000.7,N,0.8
1504192255.3,286047001.1,N,0.8
1504192275.1,286046998.3,N,1.2
1504192295.9,286046998.7,N,1.3
1504192315.7,286046998.5,N,1.4
1504192335.5,286046998.9,N,1.3
1504192355.4,286046999.4,N,1.3
1504192375.2,286046998.4,N,1.3
1504192395.0,286046998.3,N,1.3
1504192395.9,286046998.3,N,1.3
1504192415.8,286047001.1,N,1.3
1504192435.6,286047000.7,N,1.3
1504192455.5,286046998.9,N,1.3
1504192475.3,286046998.2,N,1.3
1504192495.1,286046998.3,N,1.3
1504192515.9,286046999.0,N,1.3
1504192535.7,286046999.5,N,1.3
1504192555.5,286046999.5,N,1.2
1504192575.4,286046999.6,N,1.2
1504192595.2,286046998.4,N,1.2
1504192615.1,286046998.1,N,1.2
1504192616.0,286046998.1,N,1.2
1504192635.8,286047001.2,N,1.2
1504192655.6,286047001.1,N,1.3
1504192675.5,286047000.4,N,1.2
1504192695.3,286047000.7,N,1.2
1504192715.2,286047000.0,N,1.2
1504192735.9,286047000.7,N,1.1
1504192755.7,286047000.9,N,1.1
1504192775.6,286047000.0,N,1.1
1504192795.4,286047000.4,N,1.1
1504192815.2,286047001.0,N,1.1
1504192835.1,286046998.1,N,1.1
1504192836.0,286046998.1,N,1.1
1504192855.8,286047001.1,N,1.1
1504192875.7,286046998.3,N,1.1
1504192895.5,286046999.4,N,1.1
1504192915.3,286046998.7,N,1.1
1504192935.2,286046998.4,N,1.1
1504192955.0,286047001.2,N,1.1
1504192955.9,286047001.2,N,1.2
1504192975.8,286047000.9,N,1.2
1504192995.6,286047000.2,N,1.2
1504193015.4,286047000.4,N,1.1
1504193035.3,286047000.5,N,1.1
1504193055.1,286047000.1,N,1.1
1504193075.8,286047000.2,N,1.1
1504193095.7,286047000.7,N,1.1
1504193115.5,286047000.2,N,1.1
1504193135.4,286047000.3,N,1.1
1504193155.2,286047000.4,N,1.0
1504193175.0,286047000.0,N,0.9
1504193175.9,286047000.0,N,0.9
1504193195.8,286046999.8,N,0.9
1504193215.6,286047000.4,N,0.9
1504193235.5,286047001.0,N,0.9
1504193255.3,286047000.0,N,0.9
1504193275.1,286047000.5,N,0.9
1504193295.9,286047002.8,Y,0.0
1504193315.7,286047000.5,P,0.2
1504193335.6,286047000.1,N,0.2
1504193355.4,286047000.7,P,0.3
1504193375.2,286047000.5,N,0.2
1504193395.1,286047000.7,N,0.3
1504193396.0,286047000.7,N,0.3
1504193415.8,286047001.0,Y,0.0
1504193435.6,286046998.1,P,1.2
1504193455.5,286047000.7,N,1.2
1504193475.3,286047000.9,N,1.1
1504193495.2,286047001.0,N,1.1
1504193515.9,286047001.1,N,1.0
1504193535.7,286047001.2,N,1.0
1504193555.6,286047000.8,N,0.9
1504193575.4,286047000.7,N,0.9
1504193595.3,286046998.4,N,1.1
1504193615.1,286047001.2,N,1.0
1504193616.0,286047001.2,N,1.0
1504193635.8,286046998.5,N,1.1
1504193655.7,286046999.4,N,1.1
1504193675.5,286046999.5,N,1.1
1504193695.3,286046999.4,N,1.1
1504193715.2,286046999.4,N,1.0
1504193735.0,286046998.5,N,1.1
1504193735.9,286046998.5,N,1.1
1504193755.8,286047000.8,N,1.1
1504193775.6,286047001.2,N,1.1
1504193795.4,286047001.1,N,1.1
1504193815.3,286047001.0,N,1.1
1504193835.1,286047000.6,N,1.1
1504193855.9,286047000.6,N,1.1
1504193875.7,286047001.2,N,1.1
1504193895.5,286046998.5,N,1.1
1504193915.4,286046998.4,N,1.1
1504193935.2,286046998.6,N,1.1
1504193955.1,286046999.6,N,1.1
1504193956.0,286046999.6,N,1.1
1504193975.8,286046996.5,Y,0.0
1504193995.6,286046996.9,P,1.5
1504194015.5,286046997.4,N,1.4
1504194035.3,286046997.2,N,1.2
1504194055.1,286046997.5,N,1.1
1504194075.9,286046997.9,N,1.0
1504194095.7,286046995.7,Y,0.0
1504194115.6,286046996.5,P,0.7
1504194135.4,286046999.4,N,1.2
1504194155.2,286046999.6,N,1.3
1504194175.1,286046997.3,N,1.2
1504194176.0,286046997.3,N,1.1
1504194195.8,286046997.3,N,1.1
1504194215.7,286046996.7,Y,0.0
1504194235.5,286047000.6,P,1.4
1504194255.3,286047000.7,N,1.3
1504194275.2,286047001.0,N,1.3
1504194295.0,286047000.8,N,1.2
1504194295.9,286047000.8,N,1.1
1504194315.8,286046998.2,N,1.2
1504194335.6,286046998.6,N,1.3
1504194355.4,286046998.8,N,1.2
1504194375.3,286046999.5,N,1.2
1504194395.1,286046997.3,N,1.3
1504194415.9,286046997.9,N,1.3
1504194435.7,286046997.9,N,1.3
1504194455.5,286046998.0,N,1.3
1504194475.4,286046998.0,N,1.3
1504194495.2,286046995.3,Y,0.0
1504194515.0,286046997.8,P,0.6
1504194516.0,286046997.8,P,0.6
1504194535.8,286046997.7,P,0.6
1504194555.6,286046996.9,Y,0.0
1504194575.5,286047000.0,P,1.0
1504194595.3,286047000.9,N,1.2
1504194615.1,286047001.2,N,1.2
1504194635.9,286047001.1,N,1.2
1504194655.7,286046998.1,N,1.3
1504194675.6,286046998.4,N,1.3
1504194695.4,286047001.1,N,1.3
1504194715.2,286046998.3,N,1.4
1504194735.1,286046996.5,N,1.6
1504194736.0,286046996.5,N,1.7
1504194755.8,286046997.2,N,1.7
1504194775.7,286046997.4,N,1.7
1504194795.5,286046999.5,N,1.7
1504194815.3,286046998.3,N,1.6
1504194835.2,286046999.4,N,1.6
1504194855.0,286046999.5,N,1.5
1504194855.9,286046999.5,N,1.5
1504194875.7,286046999.2,N,1.5
1504194895.6,286046998.7,N,1.4
1504194915.4,286046998.7,N,1.4
1504194935.3,286046996.7,N,1.4
1504194955.1,286046999.2,N,1.4
1504194975.8,286046998.9,N,1.4
1504194995.7,286046998.7,N,1.3
1504195015.5,286046998.9,N,1.3
1504195035.4,286046999.4,N,1.3
1504195055.2,286046996.9,N,1.3
1504195075.0,286046999.5,N,1.3
1504195075.9,286046999.5,N,1.3
1504195095.8,286046996.7,N,1.3
1504195115.6,286046997.4,N,1.4
1504195135.5,286046997.1,N,1.3
1504195155.3,286046997.7,N,1.2
1504195175.1,286046997.8,N,1.1
1504195195.9,286046997.5,N,1.1
